SCOUT X-4 DEB, 805

Orbit data source: Space-Track

SCOUT X-4 DEB, 805 is space debris in LEO originally from a launch on Thu, 04 Jun 1964 UTC launched from the Air Force Western Test Range (AFWTR). Debris objects in space refer to the collection of defunct objects orbiting the Earth. Examples of debris include non-operational satellites, rocket bodies, and fragments generated from explosions, collisions, or faulty payload assembly.

Loading next visibility...
Identifier
805, 1964-026B
Orbit
LEO
Last TLE update
4 days ago
Origin
Manufacturer
Unknown
Mission
Spacecraft
Bus & Motor
Unknown
Mass
Unknown
Launch date (UTC)
1964-06-04 (61 years ago)
Launch vehicle
Unknown
Launch site
Air Force Western Test Range (AFWTR)
Object type
Payload
Rocket body
Debris
Shape & HBR
Unknown
Radar Cross Section
Small (<0.1 m²)

Expand to show TLE details & history

TLE from 4 days ago
0 SCOUT X-4 DEB
1   805U 64026B   25112.06211467  .00003060  00000-0  10799-2 0  9996
2   805  89.8688 335.6811 0030813 146.1744 214.1429 14.34316115129724
Epoch: 2025-04-22T01:29Z
Definitive object data (Epoch: 2025-04-22T01:29:26.707Z)
Latitude
0.00006°
Longitude
102.95217°
Altitude
798.689 km
Speed
7.445 km/s
True Right ascension
22h 22m 43s
True Declination
0° 00' 00"
Sunlit
Object was in daylight at TLE epoch
Visualization TLE readout
Latitude
2.99817°
Longitude
102.90481°
Altitude
794.501 km
Speed
7.449 km/s
Apparent Right ascension
22h 51m 57s
Apparent Declination
-58° 12' 39"
Sunlit
Object is in daylight
Visualization observer readout
Local Sidereal Time
22:08:47
Azimuth
174.276° S
Elevation
-8.541°
Doppler factor
1
Orbital elements
Apogee altitude
796.307 km
Perigee altitude
752.229 km
Semi-major axis
7,152.405 km
Eccentricity
0.0030813
Inclination
89.8688°
RAAN
335.6811°
Arg. of periapsis
146.1744°
True anomaly
213.94535°
Mean anomaly
214.1429°
Eccentric anomaly
214.04406°
Mean motion
3.5881 °/min
BSTAR
0.0010799
Orbital period
100.33 mins
Loading maneuver chart data...
Loading SW <> Apogee altitude chart data...
Loading historical data...
Loading historical data...
Loading historical data...
Loading historical data...
Loading historical data...
Loading historical data...
Loading historical data...

SCOUT X-4 DEB Visibility forecast

Observer location: undefined°, undefined°

Span
Click to sort rows by Start time (UTC) header in descending order
Start Az.
Max El. time (UTC)
Max El. Az.
Max El.
End time (UTC)
End Az.
9 mins2025-04-25 14:59:46.231Z173.226° S2025-04-25 15:03:46.231Z143.11° SSE44.361°2025-04-25 15:08:46.231Z359.748° N
8 mins2025-04-26 03:11:46.231Z354.87° N2025-04-26 03:14:46.231Z305.26° NW43.119°2025-04-26 03:19:46.231Z191.518° SSW
7 mins2025-04-26 14:27:46.231Z140.232° SSE2025-04-26 14:30:46.231Z78.595° E34.103°2025-04-26 14:34:46.231Z15.327° NNE
|